Location: Heilwood
(40.6210°N, 78.9150°W)
Time: 17:15:39
(UTC-04:00)

BREEZE-M DEB (TANK) - Visible Passes

Search period start: 30 July 2014 00:00
Search period end: 09 August 2014 00:00
Orbit: 278 x 16084 km, 49.5° (Epoch: 29 July)

Date Brightness Start Highest point End Pass type
(mag) Time Alt. Az. Time Alt. Az. Time Alt. Az.
30 Jul 8.8 01:42:25 10° SW 04:14:30 79° NNW 05:13:00 10° ENE visible
30 Jul 8.4 21:02:25 10° SE 22:37:11 42° E 00:07:27 10° NE visible
31 Jul 8.9 02:02:12 10° SW 04:41:26 77° NNW 05:31:29 10° E visible
31 Jul 8.4 21:16:31 10° SSE 22:52:36 47° E 00:27:39 10° NE visible
01 Aug 8.9 02:22:32 10° WSW 05:07:07 76° N 05:49:50 10° E visible
01 Aug 8.4 21:31:27 10° SSE 23:08:28 53° E 00:47:31 10° NE visible
02 Aug 8.8 02:43:30 10° WSW 05:31:24 76° N 06:08:03 10° E visible
02 Aug 8.4 21:47:02 10° S 23:24:53 58° E 01:07:09 10° NE visible
03 Aug 8.6 03:05:15 10° WSW 05:54:25 77° N 06:26:08 10° E visible
03 Aug 8.4 22:03:05 10° S 23:41:59 64° ESE 01:26:34 10° NE visible
04 Aug 8.4 03:27:53 10° WSW 06:16:20 78° NNE 06:44:05 10° ESE visible
04 Aug 8.4 22:19:32 10° S 23:59:53 69° ESE 01:45:49 10° ENE visible
05 Aug 8.2 03:51:34 10° W 06:37:20 81° NNE 07:01:53 10° ESE visible
05 Aug 8.4 22:36:19 10° S 00:18:46 75° ESE 02:04:54 10° ENE visible
06 Aug 8.1 04:16:24 10° W 06:57:34 85° NNE 07:19:32 10° ESE visible
06 Aug 8.5 22:53:24 10° SSW 00:38:48 80° ESE 02:23:51 10° ENE visible
07 Aug 7.9 04:42:27 10° W 07:17:08 89° NE 07:37:02 10° SE visible
07 Aug 8.9 19:00:49 10° E 19:59:37 17° ENE 20:53:13 10° NE visible
07 Aug 8.5 23:10:46 10° SSW 01:00:15 85° ESE 02:42:41 10° ENE visible
08 Aug 7.7 05:09:41 10° WNW 07:36:06 85° SW 07:54:23 10° SE visible
08 Aug 8.7 19:02:20 10° ESE 20:12:42 22° ENE 21:18:44 10° NE visible
08 Aug 8.6 23:28:24 10° SSW 00:00:00 46° SSW 00:00:00 46° SSW visible
